• En España
  • Lista de países
  • Para 7 días
  • Temperatura del agua
  • Mapa Satelital
  • El tiempo en el mapa
  • Informadores
  • user-avatar
    Iniciar sesión

    Tiempo cada hora Pamporovo

    Hoy, 15 Noviembre, Jueves

    Tiempo Temperatura Precipitaciones Viento Presión Humedad
    00:00 0°C° 0 mm 1 mps 627 mmHg 88%
    01:00 0°C° 0 mm 1 mps 627 mmHg 88%
    02:00 0°C° 0 mm 1 mps 627 mmHg 87%
    03:00 0°C° 0 mm 1 mps 626 mmHg 87%
    04:00 0°C° 0 mm 1 mps 626 mmHg 87%
    05:00 -1°C° 0 mm 1 mps 626 mmHg 86%
    06:00 0°C° 0.4 mm 1 mps 626 mmHg 86%
    07:00 -2°C° 0.4 mm 2 mps 626 mmHg 86%
    08:00 -2°C° 0 mm 2 mps 626 mmHg 85%
    09:00 -1°C° 0.7 mm 2 mps 627 mmHg 80%
    10:00 -1°C° 0.7 mm 3 mps 627 mmHg 74%
    11:00 0°C° 0.7 mm 3 mps 628 mmHg 69%
    12:00 +1°C° 0.1 mm 3 mps 628 mmHg 63%
    13:00 0°C° 0.1 mm 4 mps 628 mmHg 57%
    14:00 +1°C° 0 mm 4 mps 628 mmHg 48%
    15:00 +1°C° 0 mm 3 mps 628 mmHg 52%
    16:00 0°C° 0 mm 3 mps 627 mmHg 56%
    17:00 -1°C° 0 mm 2 mps 627 mmHg 60%
    18:00 -2°C° 0 mm 2 mps 627 mmHg 63%
    19:00 -3°C° 0 mm 2 mps 627 mmHg 65%
    20:00 -4°C° 0 mm 2 mps 627 mmHg 68%
    21:00 -4°C° 0 mm 2 mps 627 mmHg 68%
    22:00 -4°C° 0 mm 2 mps 627 mmHg 69%
    23:00 -4°C° 0 mm 2 mps 627 mmHg 69%

    Mañana, 16 Noviembre, Viernes

    Tiempo Temperatura Precipitaciones Viento Presión Humedad
    00:00 -4°C° 0 mm 2 mps 627 mmHg 71%
    01:00 -5°C° 0 mm 2 mps 627 mmHg 72%
    02:00 -5°C° 0 mm 2 mps 627 mmHg 73%
    03:00 -5°C° 0 mm 2 mps 627 mmHg 74%
    04:00 -5°C° 0 mm 2 mps 627 mmHg 75%
    05:00 -5°C° 0 mm 2 mps 627 mmHg 77%
    06:00 -5°C° 0 mm 2 mps 627 mmHg 77%
    07:00 -5°C° 0 mm 2 mps 627 mmHg 77%
    08:00 -5°C° 0 mm 2 mps 628 mmHg 77%
    09:00 -4°C° 0 mm 2 mps 628 mmHg 70%
    10:00 -2°C° 0 mm 2 mps 629 mmHg 62%
    11:00 +1°C° 0 mm 2 mps 630 mmHg 55%
    12:00 +1°C° 0 mm 2 mps 630 mmHg 54%
    13:00 0°C° 0 mm 3 mps 629 mmHg 53%
    14:00 0°C° 0 mm 3 mps 629 mmHg 52%
    15:00 -1°C° 0 mm 3 mps 629 mmHg 57%
    16:00 -2°C° 0 mm 2 mps 629 mmHg 62%
    17:00 -3°C° 0 mm 2 mps 629 mmHg 67%
    18:00 -4°C° 0 mm 2 mps 629 mmHg 71%
    19:00 -4°C° 0 mm 2 mps 629 mmHg 75%
    20:00 -5°C° 0 mm 2 mps 629 mmHg 78%
    21:00 -6°C° 0 mm 2 mps 628 mmHg 80%
    22:00 -6°C° 0 mm 2 mps 628 mmHg 82%
    23:00 -6°C° 0 mm 1 mps 628 mmHg 84%

    Pasado mañana, 17 Noviembre, Sábado

    Tiempo Temperatura Precipitaciones Viento Presión Humedad
    00:00 -6°C° 0 mm 1 mps 628 mmHg 85%
    01:00 -7°C° 0 mm 1 mps 628 mmHg 85%
    02:00 -7°C° 0 mm 1 mps 628 mmHg 85%
    03:00 -7°C° 0 mm 1 mps 628 mmHg 84%
    04:00 -7°C° 0 mm 1 mps 628 mmHg 84%
    05:00 -8°C° 0 mm 2 mps 627 mmHg 83%
    06:00 -8°C° 0 mm 2 mps 628 mmHg 81%
    07:00 -8°C° 0 mm 2 mps 628 mmHg 78%
    08:00 -8°C° 0 mm 2 mps 628 mmHg 76%
    09:00 -6°C° 0 mm 2 mps 628 mmHg 68%
    10:00 -4°C° 0 mm 2 mps 629 mmHg 60%
    11:00 -3°C° 0 mm 2 mps 630 mmHg 52%
    12:00 -3°C° 0 mm 2 mps 630 mmHg 51%
    13:00 -2°C° 0 mm 2 mps 629 mmHg 51%
    14:00 -2°C° 0 mm 2 mps 629 mmHg 51%
    15:00 -3°C° 0 mm 2 mps 629 mmHg 56%
    16:00 -4°C° 0 mm 2 mps 628 mmHg 60%
    17:00 -4°C° 0 mm 2 mps 628 mmHg 64%
    18:00 -5°C° 0 mm 2 mps 628 mmHg 67%
    19:00 -5°C° 0 mm 2 mps 628 mmHg 69%
    20:00 -6°C° 0 mm 2 mps 628 mmHg 71%
    21:00 -6°C° 0 mm 2 mps 628 mmHg 73%
    22:00 -6°C° 0 mm 2 mps 628 mmHg 75%
    23:00 -6°C° 0 mm 2 mps 628 mmHg 76%

    18 Noviembre, Domingo

    Tiempo Temperatura Precipitaciones Viento Presión Humedad
    00:00 -6°C° 0 mm 2 mps 627 mmHg 78%
    01:00 -6°C° 0 mm 2 mps 627 mmHg 79%
    02:00 -6°C° 0 mm 2 mps 627 mmHg 80%
    03:00 -6°C° 0 mm 2 mps 627 mmHg 81%
    04:00 -6°C° 0 mm 2 mps 626 mmHg 82%
    05:00 -6°C° 0 mm 2 mps 626 mmHg 83%
    06:00 -6°C° 0 mm 2 mps 626 mmHg 81%
    07:00 -6°C° 0 mm 2 mps 626 mmHg 79%
    08:00 -5°C° 0 mm 2 mps 626 mmHg 78%
    09:00 -4°C° 0 mm 2 mps 627 mmHg 73%
    10:00 -3°C° 0 mm 2 mps 627 mmHg 68%
    11:00 -1°C° 0 mm 2 mps 627 mmHg 63%
    12:00 -1°C° 0 mm 2 mps 627 mmHg 61%
    13:00 +1°C° 0 mm 2 mps 627 mmHg 59%
    14:00 +1°C° 0 mm 2 mps 626 mmHg 58%
    15:00 -1°C° 0 mm 2 mps 626 mmHg 64%
    16:00 -2°C° 0 mm 2 mps 625 mmHg 70%
    17:00 -3°C° 0 mm 2 mps 624 mmHg 77%
    18:00 -3°C° 0.1 mm 2 mps 624 mmHg 79%
    19:00 -3°C° 0.1 mm 2 mps 623 mmHg 81%
    20:00 -3°C° 0.1 mm 2 mps 623 mmHg 83%
    21:00 -4°C° 0.6 mm 2 mps 623 mmHg 84%
    22:00 -4°C° 0.6 mm 2 mps 622 mmHg 86%
    23:00 -4°C° 0.6 mm 2 mps 622 mmHg 87%

    19 Noviembre, Lunes

    Tiempo Temperatura Precipitaciones Viento Presión Humedad
    00:00 -2°C° 1.1 mm 1 mps 622 mmHg 88%
    01:00 -2°C° 1.1 mm 1 mps 621 mmHg 89%
    02:00 -2°C° 1.1 mm 1 mps 621 mmHg 89%
    03:00 -2°C° 0.3 mm 1 mps 621 mmHg 90%
    04:00 -2°C° 0.3 mm 1 mps 620 mmHg 90%
    05:00 -2°C° 0.3 mm 1 mps 620 mmHg 90%
    06:00 -1°C° 0.3 mm 1 mps 620 mmHg 90%
    07:00 -1°C° 0.3 mm 1 mps 620 mmHg 89%
    08:00 -1°C° 0.3 mm 1 mps 620 mmHg 89%
    09:00 0°C° 0.2 mm 1 mps 621 mmHg 88%
    10:00 0°C° 0.2 mm 1 mps 621 mmHg 86%
    11:00 +1°C° 0.2 mm 1 mps 621 mmHg 85%
    12:00 +1°C° 0.2 mm 1 mps 621 mmHg 85%
    13:00 +2°C° 0.2 mm 1 mps 621 mmHg 85%
    14:00 +2°C° 0.2 mm 1 mps 621 mmHg 85%
    15:00 +2°C° 0 mm 1 mps 621 mmHg 88%
    16:00 +1°C° 0 mm 1 mps 621 mmHg 90%
    17:00 +1°C° 0 mm 1 mps 621 mmHg 92%
    18:00 +1°C° 0 mm 1 mps 621 mmHg 92%
    19:00 +1°C° 0 mm 1 mps 621 mmHg 92%
    20:00 0°C° 0 mm 1 mps 621 mmHg 92%
    21:00 0°C° 0 mm 1 mps 621 mmHg 92%
    22:00 0°C° 0 mm 1 mps 622 mmHg 92%
    23:00 0°C° 0 mm 1 mps 622 mmHg 92%

    20 Noviembre, Martes

    Tiempo Temperatura Precipitaciones Viento Presión Humedad
    00:00 +1°C° 0 mm 1 mps 622 mmHg 92%
    01:00 +1°C° 0 mm 1 mps 622 mmHg 92%
    02:00 +1°C° 0 mm 1 mps 622 mmHg 93%
    03:00 +1°C° 0 mm 1 mps 622 mmHg 93%
    04:00 +1°C° 0 mm 1 mps 622 mmHg 92%
    05:00 +1°C° 0 mm 1 mps 622 mmHg 92%
    06:00 +1°C° 0 mm 1 mps 622 mmHg 92%
    07:00 +1°C° 0 mm 1 mps 622 mmHg 92%
    08:00 +2°C° 0 mm 1 mps 622 mmHg 92%
    09:00 +2°C° 0 mm 2 mps 623 mmHg 89%
    10:00 +3°C° 0 mm 2 mps 623 mmHg 85%
    11:00 +5°C° 0 mm 2 mps 624 mmHg 82%
    12:00 +5°C° 0 mm 2 mps 624 mmHg 81%
    13:00 +6°C° 0 mm 2 mps 624 mmHg 80%
    14:00 +6°C° 0 mm 2 mps 624 mmHg 79%
    15:00 +6°C° 0 mm 2 mps 623 mmHg 83%
    16:00 +5°C° 0 mm 2 mps 623 mmHg 87%
    17:00 +4°C° 0 mm 2 mps 623 mmHg 91%
    18:00 +4°C° 0.1 mm 2 mps 623 mmHg 92%
    19:00 +4°C° 0.1 mm 2 mps 622 mmHg 93%
    20:00 +4°C° 0.1 mm 2 mps 622 mmHg 93%
    21:00 +4°C° 0.1 mm 2 mps 622 mmHg 93%
    22:00 +4°C° 0.1 mm 2 mps 622 mmHg 93%
    23:00 +4°C° 0.1 mm 3 mps 622 mmHg 93%
    Mostrar más